This is the latest recevied weather packets stored in our database for station/object G4KVI. If no packets are shown the sender has not sent any weather packets the latest 10 day(s).
| Time | Temp. | Humidity | Pressure | Rain* | Wind** | Luminosity | Snow |
|---|---|---|---|---|---|---|---|
| 1787574005 | 21.11° C | 49% | 1019.9 hPa | 0 mm | - | 323 W/m² | - |
| 1787573705 | 20.56° C | 50% | 1019.6 hPa | 0 mm | - | 623 W/m² | - |
| 1787573405 | 20.56° C | 51% | 1019.9 hPa | 0 mm | - | 544 W/m² | - |
| 1787573105 | 20.56° C | 50% | 1019.9 hPa | 0 mm | - | 586 W/m² | - |
| 1787572805 | 20.56° C | 52% | 1020.2 hPa | 0 mm | - | 502 W/m² | - |
| 1787572505 | 20° C | 51% | 1020.1 hPa | 0 mm | - | 662 W/m² | - |
| 1787572205 | 20° C | 52% | 1020.1 hPa | 0 mm | - | 309 W/m² | - |
| 1787571905 | 20.56° C | 52% | 1020.2 hPa | 0 mm | - | 407 W/m² | - |
| 1787571605 | 20.56° C | 51% | 1020.3 hPa | 0 mm | - | 353 W/m² | - |
| 1787571305 | 20° C | 53% | 1020.5 hPa | 0 mm | - | 705 W/m² | - |
| 1787571005 | 20° C | 52% | 1020.5 hPa | 0 mm | - | 410 W/m² | - |
| 1787570705 | 20° C | 52% | 1020.6 hPa | 0 mm | - | 453 W/m² | - |
| 1787570405 | 20° C | 53% | 1020.5 hPa | 0 mm | - | 588 W/m² | - |
| 1787570105 | 19.44° C | 53% | 1020.6 hPa | 0 mm | - | 589 W/m² | - |
| 1787569805 | 19.44° C | 54% | 1020.5 hPa | 0 mm | - | 486 W/m² | - |
| 1787569505 | 19.44° C | 54% | 1020.8 hPa | 0 mm | - | 596 W/m² | - |
| 1787569205 | 19.44° C | 54% | 1020.7 hPa | 0 mm | - | 313 W/m² | - |
| 1787568905 | 19.44° C | 55% | 1021 hPa | 0 mm | - | 704 W/m² | - |
| 1787568605 | 19.44° C | 55% | 1021.2 hPa | 0 mm | - | 453 W/m² | - |
| 1787568305 | 19.44° C | 55% | 1021.1 hPa | 0 mm | - | 489 W/m² | - |
| 1787568005 | 18.89° C | 57% | 1021 hPa | 0 mm | - | 569 W/m² | - |
| 1787567705 | 18.89° C | 57% | 1020.9 hPa | 0 mm | - | 237 W/m² | - |
| 1787567405 | 18.89° C | 58% | 1021.3 hPa | 0 mm | - | 459 W/m² | - |
| 1787567105 | 18.33° C | 59% | 1021.3 hPa | 0 mm | - | 257 W/m² | - |
| 1787566805 | 18.89° C | 59% | 1021.6 hPa | 0 mm | - | 361 W/m² | - |
* Rain latest hour (hover to see other rain measurements)
** Current wind speed in m/s (hover to see current wind gust speed)